Temp
52 52 52 52 52 51 47 38 31 46 48 35 34 32 36 43 42 46 45 45 44 42 44 43 43 43 47 52 51 45 48 41 32 40 49 54 49 45 40 31 29 32 32 30
51 51 51 52 51 51 39 32 35 45 44 29 31 35 37 40 39 41 42 42 45 46 41 37 43 44 48 50 50 47 46 35 31 34 40 45 44 46 48 43 36 31 28 28
50 50 51 51 51 51 39 30 25 33 38 38 33 33 33 34 42 40 43 42 43 40 38 43 40 42 46 48 49 48 48 39 33 30 35 39 36 44 47 43 31 32 32 34
51 51 51 51 51 50 37 28 24 34 28 30 33 34 33 33 32 41 43 40 39 37 33 35 36 41 43 46 48 47 45 33 33 37 42 42 40 37 41 39 39 34 34 37
50 50 50 50 50 50 33 25 25 30 30 33 33 32 32 32 35 38 37 36 41 39 35 37 35 38 39 40 42 42 43 33 35 31 40 40 34 37 39 39 41 39 36 36
50 50 50 50 50 47 30 28 35 32 28 27 30 31 33 34 37 40 43 41 40 36 39 43 45 45 43 41 39 38 37 31 30 29 38 36 29 34 36 40 42 43 37 41
50 50 50 50 50 48 33 32 31 25 20 25 26 32 33 31 32 33 39 44 40 44 48 45 43 41 41 41 41 42 34 32 32 28 30 23 36 43 45 42 42 44 44 44
49 49 49 49 50 49 35 33 32 27 20 28 30 31 33 36 37 35 36 42 46 48 42 35 32 32 34 37 39 39 38 33 30 26 25 31 38 40 40 38 38 44 44 45
49 49 49 49 49 49 41 35 36 31 21 26 35 34 34 30 32 34 36 43 47 45 37 33 26 23 29 29 34 41 38 36 32 28 25 23 32 44 47 47 31 44 46 43
49 49 49 49 49 49 43 36 42 33 22 31 33 29 31 32 32 31 35 39 38 41 33 29 27 28 36 28 28 31 32 31 29 28 27 29 39 45 46 29 31 43 44 40
48 48 48 48 48 48 43 39 42 37 26 32 37 39 35 35 33 27 35 35 35 35 29 29 29 28 30 30 35 31 31 30 28 29 27 25 44 43 36 40 41 42 41 39
48 48 48 48 46 46 46 37 41 42 32 30 40 42 44 43 42 36 35 33 34 35 30 31 32 28 31 30 27 36 30 35 30 33 32 41 44 42 44 45 43 41 40 37
48 48 48 46 46 48 46 35 37 38 34 33 34 35 43 46 44 45 33 37 41 36 38 33 34 30 33 28 29 31 34 41 33 34 38 41 43 42 43 45 43 44 41 38
47 47 47 46 46 48 46 37 37 36 35 26 32 45 40 47 44 43 42 39 43 40 38 35 33 31 38 30 34 32 36 38 36 33 35 40 43 43 43 43 45 44 41 39
47 46 46 46 48 48 44 37 38 39 34 27 29 41 45 46 44 43 42 42 41 37 35 33 33 35 34 32 34 30 38 33 31 29 40 39 41 44 45 43 44 44 43 39
46 47 48 48 48 48 40 33 40 38 39 30 28 40 41 43 43 43 42 41 36 37 35 32 34 39 34 26 26 36 40 42 43 40 43 41 42 44 45 43 43 44 43 43
47 47 48 47 47 42 35 30 37 43 41 34 30 32 41 44 42 39 39 39 36 35 33 32 32 32 32 24 24 36 39 40 42 44 44 39 40 40 45 46 46 45 43 43
47 47 47 47 46 43 37 39 43 43 38 37 29 31 33 41 31 31 36 33 33 31 29 29 30 30 25 22 32 36 39 40 40 41 43 41 42 42 43 44 43 41 40 40
46 44 41 37 35 33 34 45 46 43 37 31 31 28 26 38 32 30 31 33 25 32 25 27 29 24 25 31 34 34 37 39 43 44 41 40 41 41 41 41 40 39 38 38
42 36 31 28 34 44 46 39 33 35 35 34 30 32 28 32 25 28 27 27 27 25 27 30 25 25 34 36 38 39 39 40 40 35 35 36 37 39 38 39 41 41 40 37
37 33 32 38 45 37 33 29 29 30 27 32 32 31 28 34 25 26 26 27 27 21 25 24 23 24 30 37 38 39 39 40 40 42 41 41 40 38 37 37 37 37 36 35
40 39 39 39 35 30 27 26 29 27 28 31 29 30 32 31 32 26 29 25 28 20 28 25 23 27 35 35 36 35 36 39 40 42 42 41 41 42 38 34 34 34 32 27
41 37 32 31 27 21 21 19 24 22 28 29 29 26 29 28 30 28 28 20 20 28 26 26 26 30 33 32 33 33 35 36 35 33 33 33 32 32 34 30 26 27 23 17
30 28 19 22 16 22 23 24 24 27 26 28 30 25 27 24 27 27 21 24 30 24 21 23 24 28 30 31 31 31 30 29 29 28 27 25 25 24 25 23 20 21 19 13
28 28 16 20 28 30 30 30 27 27 26 30 28 26 27 24 23 27 25 24 21 23 21 23 27 31 31 31 31 30 29 22 26 28 26 23 23 24 23 21 20 20 18 17
29 27 21 20 18 17 18 26 25 27 24 25 27 25 21 21 25 23 20 21 17 21 23 28 30 30 31 31 31 31 30 30 29 28 28 28 28 27 26 28 27 26 22 22
29 21 31 28 25 15 16 30 29 29 26 22 27 21 25 26 20 23 25 19 22 20 30 27 32 32 31 31 30 30 30 29 28 28 28 26 25 27 27 25 26 27 27 26
MSLP
1013.99 1014.46 1015.00 1015.48 1015.94 1016.33 1016.74 1017.10 1016.98 1015.71 1015.65 1016.27 1015.16 1014.71 1013.72 1012.97 1012.25 1011.72 1011.60 1010.39 1009.09 1008.82 1008.37 1007.79 1007.55 1007.10 1006.68 1006.32 1006.43 1007.28 1007.81 1008.75 1008.55 1007.94 1007.12 1006.90 1007.30 1008.32 1009.66 1011.03 1012.15 1012.38 1011.94 1010.37
1013.47 1013.97 1014.45 1015.06 1015.51 1016.05 1016.92 1017.28 1016.77 1015.91 1015.77 1014.89 1014.79 1014.49 1013.52 1013.35 1012.34 1011.75 1011.87 1010.90 1009.96 1009.51 1008.87 1008.67 1007.80 1007.36 1006.97 1006.87 1006.89 1007.22 1007.99 1009.04 1009.25 1008.54 1008.26 1007.64 1007.69 1008.22 1009.30 1010.18 1011.09 1011.61 1011.97 1010.63
1012.91 1013.41 1013.90 1014.47 1015.06 1015.66 1016.66 1017.73 1017.26 1016.42 1015.71 1014.70 1014.73 1014.40 1013.33 1013.02 1011.85 1012.48 1011.58 1011.11 1010.88 1010.36 1009.55 1009.10 1008.62 1007.95 1007.73 1007.66 1007.35 1008.01 1008.65 1009.30 1009.36 1008.94 1008.79 1008.65 1008.45 1008.31 1008.63 1009.88 1010.84 1010.97 1011.03 1010.47
1012.08 1012.72 1013.28 1013.94 1014.58 1015.20 1016.35 1017.41 1017.01 1015.94 1015.39 1014.97 1014.52 1014.54 1013.62 1012.76 1012.18 1011.75 1011.49 1011.37 1010.91 1010.79 1010.26 1009.70 1009.40 1008.75 1008.39 1008.34 1008.43 1008.83 1008.88 1009.94 1010.13 1009.83 1009.48 1009.17 1009.12 1009.45 1009.41 1009.17 1009.44 1009.88 1009.82 1009.82
1011.16 1011.81 1012.48 1013.27 1013.99 1014.73 1016.10 1016.88 1016.98 1016.33 1015.74 1015.01 1014.44 1013.80 1012.83 1012.53 1011.02 1011.60 1011.22 1011.06 1010.39 1010.49 1010.61 1010.28 1009.71 1009.25 1009.01 1008.66 1008.91 1008.83 1008.88 1009.67 1009.91 1010.77 1010.35 1009.99 1009.78 1009.31 1008.89 1009.22 1009.14 1008.77 1008.87 1008.82
1010.06 1010.77 1011.54 1012.32 1013.01 1014.07 1014.96 1015.65 1015.78 1015.91 1015.21 1014.88 1014.71 1013.52 1012.50 1011.86 1011.37 1011.17 1010.53 1010.30 1010.28 1010.08 1009.36 1010.11 1009.87 1009.59 1009.39 1009.50 1009.45 1009.45 1009.87 1010.48 1011.02 1010.51 1010.25 1010.27 1009.91 1008.45 1008.84 1008.50 1008.32 1008.25 1008.42 1008.04
1008.76 1009.54 1010.33 1011.18 1011.92 1012.54 1013.78 1014.66 1015.25 1016.05 1015.22 1014.96 1014.12 1013.47 1012.92 1012.49 1012.09 1011.11 1010.24 1009.68 1009.65 1007.95 1009.39 1009.82 1009.89 1010.06 1010.03 1009.50 1009.44 1009.55 1010.75 1010.75 1011.19 1011.15 1010.66 1009.72 1007.53 1006.98 1007.07 1007.31 1007.26 1007.52 1007.39 1007.54
1007.31 1008.19 1009.07 1009.86 1010.69 1011.49 1012.86 1013.68 1014.16 1014.81 1014.63 1014.07 1013.63 1013.14 1012.75 1011.93 1011.61 1010.55 1009.92 1009.40 1008.33 1008.90 1009.52 1010.16 1010.29 1010.16 1010.39 1009.47 1009.48 1009.57 1010.64 1010.62 1010.97 1011.21 1010.45 1009.07 1007.26 1007.06 1007.04 1006.97 1006.73 1006.61 1006.92 1007.42
1005.89 1006.78 1007.70 1008.59 1009.47 1010.46 1011.76 1012.43 1013.00 1013.95 1014.33 1013.19 1012.79 1012.31 1012.22 1011.87 1010.93 1010.33 1009.19 1009.03 1008.71 1008.99 1009.64 1010.14 1009.94 1009.68 1009.75 1009.38 1009.20 1009.29 1010.15 1010.16 1010.43 1010.28 1009.79 1008.77 1006.97 1005.98 1005.90 1006.43 1006.52 1005.83 1005.93 1006.94
1004.58 1005.47 1006.38 1007.30 1008.27 1009.33 1010.73 1011.57 1012.18 1013.32 1013.45 1012.42 1012.30 1012.02 1011.75 1011.80 1011.30 1010.77 1009.25 1008.40 1008.60 1008.60 1009.38 1009.26 1009.34 1009.17 1008.46 1008.55 1008.55 1009.02 1009.43 1009.75 1009.41 1009.36 1009.15 1007.95 1006.38 1005.82 1006.21 1006.58 1005.83 1005.25 1005.79 1006.81
1003.41 1004.25 1005.14 1005.99 1007.09 1008.09 1009.55 1010.63 1011.31 1012.13 1012.41 1011.81 1011.41 1011.22 1011.04 1010.80 1011.20 1010.95 1009.90 1008.72 1008.27 1008.76 1009.23 1009.23 1008.69 1008.82 1008.64 1008.44 1007.63 1007.60 1007.90 1008.50 1008.25 1008.46 1008.10 1007.37 1005.60 1005.64 1005.69 1005.17 1005.08 1005.45 1006.07 1006.89
1002.44 1003.30 1004.12 1005.14 1006.27 1007.52 1008.95 1010.27 1010.88 1011.54 1012.03 1011.17 1010.45 1010.05 1009.78 1009.65 1009.91 1010.62 1009.84 1008.94 1008.65 1007.76 1008.37 1008.59 1008.42 1008.86 1008.61 1008.78 1007.96 1007.64 1007.22 1006.41 1006.86 1007.09 1006.27 1005.52 1004.86 1004.72 1004.46 1004.66 1004.87 1005.58 1006.41 1007.34
1001.58 1002.48 1003.30 1004.52 1005.87 1007.09 1008.22 1009.49 1010.40 1011.39 1011.52 1011.10 1010.47 1009.11 1008.71 1008.51 1008.74 1009.30 1009.76 1008.52 1008.36 1007.12 1006.78 1007.69 1008.28 1008.37 1008.34 1008.60 1008.38 1007.97 1007.06 1006.33 1006.71 1006.51 1005.59 1005.26 1004.74 1004.62 1004.45 1004.54 1004.74 1005.38 1006.12 1007.22
1001.07 1001.99 1003.02 1004.43 1005.72 1006.72 1007.91 1008.94 1009.57 1010.26 1010.68 1010.42 1008.62 1007.36 1007.41 1007.45 1008.14 1008.78 1008.48 1008.21 1007.25 1006.50 1006.41 1007.01 1007.60 1007.80 1007.56 1007.87 1007.39 1007.19 1006.46 1006.35 1006.17 1006.04 1005.45 1005.07 1004.34 1004.36 1004.61 1004.83 1005.00 1005.47 1006.33 1007.03
1000.91 1002.21 1003.48 1004.68 1005.61 1006.65 1007.92 1008.80 1009.10 1009.25 1010.18 1009.01 1007.62 1006.39 1005.92 1006.39 1006.44 1006.30 1006.13 1006.36 1006.22 1006.04 1006.60 1007.04 1007.26 1007.15 1007.42 1007.62 1007.44 1006.57 1005.68 1005.51 1005.76 1005.01 1004.62 1004.56 1004.52 1004.26 1004.57 1004.96 1005.23 1005.57 1006.28 1007.27
1001.57 1002.62 1003.63 1004.67 1005.68 1006.76 1008.19 1009.14 1009.29 1009.16 1009.66 1009.71 1007.84 1004.90 1004.35 1005.13 1005.98 1005.76 1005.56 1005.81 1006.32 1006.19 1006.36 1007.28 1007.12 1006.72 1006.98 1007.70 1007.05 1005.15 1004.74 1004.39 1003.85 1004.01 1003.90 1004.04 1004.08 1004.14 1004.38 1004.95 1004.99 1005.24 1005.85 1006.42
1002.30 1003.21 1004.10 1004.98 1005.83 1006.84 1007.45 1007.82 1008.00 1007.94 1009.42 1009.26 1007.63 1004.87 1004.26 1004.90 1005.47 1005.46 1005.77 1006.01 1006.27 1006.21 1007.11 1007.50 1007.47 1007.13 1007.01 1007.34 1006.31 1004.86 1004.12 1003.94 1003.90 1003.72 1003.90 1004.33 1004.20 1004.16 1004.08 1004.41 1004.71 1005.10 1005.61 1006.16
1002.97 1003.82 1004.61 1005.36 1006.25 1007.31 1007.68 1007.04 1007.73 1007.97 1008.92 1008.91 1006.68 1004.74 1004.51 1004.92 1005.56 1006.03 1006.28 1006.58 1006.84 1007.36 1007.84 1007.89 1007.64 1007.59 1007.63 1007.03 1005.04 1004.29 1004.02 1003.93 1003.86 1003.79 1003.72 1003.72 1003.73 1003.91 1004.11 1004.31 1004.74 1005.45 1006.00 1006.45
1003.87 1004.82 1005.77 1006.41 1006.86 1006.87 1006.98 1007.39 1007.77 1008.00 1008.22 1007.46 1006.12 1005.34 1004.82 1005.24 1006.08 1006.58 1006.97 1007.07 1007.56 1007.94 1008.27 1008.32 1008.18 1008.12 1007.12 1005.11 1004.45 1004.26 1003.90 1003.99 1003.42 1003.48 1003.75 1003.97 1004.17 1004.07 1004.15 1004.49 1005.02 1005.57 1006.20 1006.80
1004.59 1005.78 1006.74 1006.36 1005.69 1005.71 1006.13 1007.40 1007.75 1007.61 1007.22 1006.61 1005.53 1005.23 1005.57 1005.76 1006.54 1007.35 1007.73 1007.76 1008.20 1008.24 1008.48 1008.41 1008.27 1007.11 1005.39 1004.57 1004.34 1004.17 1004.09 1003.90 1003.59 1003.61 1003.70 1003.81 1004.02 1004.24 1004.46 1004.71 1004.82 1005.32 1006.04 1006.92
1004.57 1004.50 1004.32 1004.14 1004.46 1005.57 1006.04 1006.19 1006.20 1006.39 1006.74 1005.98 1004.98 1005.20 1005.42 1005.82 1006.47 1007.50 1007.90 1008.11 1008.10 1008.35 1008.47 1008.60 1007.94 1006.65 1005.00 1004.44 1003.80 1003.37 1003.05 1002.61 1002.62 1002.76 1002.91 1003.31 1003.44 1003.82 1004.28 1004.73 1005.34 1006.02 1006.62 1007.44
1003.04 1002.96 1003.83 1004.34 1004.75 1005.60 1005.74 1005.60 1006.03 1005.99 1005.06 1004.72 1004.60 1004.67 1004.90 1005.56 1005.80 1006.83 1007.71 1007.69 1007.99 1007.94 1007.98 1008.24 1007.40 1005.15 1004.28 1003.74 1003.49 1003.50 1002.38 1002.05 1002.53 1002.86 1003.08 1003.45 1003.65 1003.73 1004.15 1005.05 1005.88 1006.78 1007.36 1007.95
1002.63 1002.86 1003.58 1004.14 1004.99 1005.46 1005.55 1005.40 1005.11 1004.65 1004.26 1004.73 1004.73 1005.17 1005.32 1005.81 1006.09 1007.25 1007.67 1007.99 1007.85 1007.39 1007.45 1007.17 1005.75 1004.75 1004.50 1004.42 1004.13 1003.72 1003.41 1003.01 1003.37 1003.73 1003.93 1004.22 1004.50 1004.66 1005.02 1005.99 1006.93 1007.63 1008.48 1009.15
1003.01 1003.43 1004.07 1004.76 1005.33 1005.45 1005.34 1005.07 1004.99 1005.04 1004.85 1004.64 1005.02 1005.65 1005.82 1006.53 1006.95 1007.54 1007.90 1007.99 1007.34 1007.48 1007.43 1006.21 1004.98 1004.93 1004.98 1005.27 1005.27 1005.07 1005.15 1004.95 1004.85 1005.11 1005.36 1005.68 1005.92 1006.68 1006.92 1007.32 1008.07 1008.66 1009.64 1010.30
1003.99 1004.47 1005.32 1005.54 1005.84 1005.81 1005.48 1005.42 1005.44 1005.01 1004.81 1004.90 1005.35 1005.79 1006.12 1006.79 1007.33 1007.40 1007.75 1007.87 1007.71 1007.29 1006.06 1005.27 1004.86 1005.03 1005.48 1005.77 1005.79 1006.07 1006.30 1006.21 1006.17 1006.39 1006.72 1007.15 1007.44 1007.81 1008.48 1008.78 1009.24 1009.78 1010.42 1010.89
1004.42 1005.23 1006.01 1006.17 1006.47 1006.54 1005.95 1005.94 1005.95 1005.57 1005.30 1005.32 1005.50 1006.31 1006.58 1006.81 1006.96 1007.50 1007.54 1007.61 1007.22 1006.17 1005.22 1004.87 1004.96 1005.35 1005.92 1006.08 1006.27 1006.53 1006.78 1007.03 1007.18 1007.41 1007.70 1008.07 1008.42 1008.74 1009.14 1009.65 1010.15 1010.58 1010.93 1011.43
1004.83 1005.33 1005.43 1005.79 1006.15 1006.25 1006.34 1005.81 1005.72 1005.43 1005.34 1005.48 1005.71 1006.03 1006.18 1006.57 1006.71 1006.90 1006.75 1006.39 1005.76 1005.36 1005.15 1005.04 1005.05 1005.48 1005.98 1006.36 1006.59 1006.87 1007.13 1007.50 1007.84 1008.12 1008.45 1008.82 1009.09 1009.32 1009.73 1010.25 1010.68 1010.90 1011.23 1011.67
Wind_Speed
15 15 13 11 10 6 4 2 5 1 7 9 3 14 11 4 10 1 6 7 4 4 6 3 3 7 4 3 2 6 10 4 5 10 5 4 3 4 12 4 6 5 1 7
19 17 15 14 12 11 4 3 2 3 5 10 12 7 18 12 6 7 5 5 6 4 5 3 5 2 5 5 3 2 3 2 0 4 4 2 6 11 11 6 4 5 5 7
19 19 17 15 15 14 5 3 3 4 4 4 4 11 21 15 11 14 7 4 6 4 4 3 4 2 1 4 1 2 9 4 6 6 3 2 2 5 13 12 3 5 7 6
20 20 19 18 17 16 6 2 5 3 5 10 12 15 7 20 15 14 16 11 8 6 4 2 5 3 2 3 3 5 10 3 2 4 5 4 3 9 9 11 17 8 8 14
24 23 21 20 20 19 3 6 4 3 4 7 9 16 14 22 25 14 13 16 19 9 10 5 5 3 3 4 1 4 1 4 6 3 6 5 3 10 18 7 4 6 3 8
26 25 25 24 23 18 4 2 2 3 4 3 8 7 10 13 20 16 17 18 16 12 18 8 10 5 3 3 3 0 2 5 3 6 7 4 4 15 13 8 5 7 11 10
29 28 27 27 27 26 4 4 4 4 7 5 8 8 10 16 17 17 11 17 17 26 3 3 2 2 5 5 6 5 4 5 3 2 4 7 7 6 17 13 7 10 5 6
30 29 29 28 28 29 4 4 5 4 5 7 13 15 14 14 14 21 20 17 14 6 5 6 3 2 5 7 6 9 6 4 3 5 5 6 10 5 7 8 11 12 12 8
30 30 30 30 30 29 10 4 4 4 3 9 10 7 8 6 7 5 7 10 10 4 3 7 10 7 5 5 4 11 6 3 5 3 5 7 5 7 5 6 12 9 15 9
29 30 30 31 31 30 13 3 9 4 3 6 3 5 3 0 4 7 4 9 5 6 7 5 7 10 5 7 8 7 10 5 13 7 5 7 7 6 5 7 10 5 6 6
27 28 28 31 32 31 17 7 10 9 3 8 6 10 17 6 7 5 6 2 1 4 6 5 2 3 3 3 5 8 10 7 6 5 8 9 7 3 12 8 4 3 4 7
25 25 27 29 28 29 21 5 6 9 3 6 8 14 18 16 14 5 4 8 8 6 3 4 2 3 2 3 3 6 8 6 6 9 7 5 5 6 4 5 5 5 6 5
25 21 26 30 30 30 21 4 5 5 6 7 9 14 12 9 9 8 5 4 8 4 5 5 2 3 3 4 4 4 4 2 2 3 6 7 5 1 2 5 5 6 7 9
21 23 25 26 28 27 21 5 4 4 2 5 8 8 11 10 7 15 15 17 11 3 3 3 3 4 5 5 4 6 5 6 6 4 4 3 3 3 3 2 6 7 6 7
25 27 27 27 25 23 12 2 3 4 5 3 4 6 10 11 2 18 21 14 10 3 3 2 3 3 4 1 1 3 5 7 6 6 7 6 5 6 6 8 7 9 9 6
24 24 23 21 20 20 5 3 4 4 3 3 6 3 8 8 9 1 3 4 2 4 5 3 1 1 4 3 4 7 6 6 5 6 5 6 3 7 7 7 8 7 8 6
20 19 18 18 19 9 6 5 2 12 5 4 6 4 4 9 5 3 2 1 1 3 2 2 2 1 4 2 4 5 7 7 5 5 5 4 4 6 8 8 8 7 6 6
18 17 16 16 20 7 5 4 2 8 4 3 6 3 3 2 2 3 2 3 3 5 2 2 1 2 2 4 7 6 5 4 6 7 6 5 3 4 6 5 6 6 6 5
20 19 17 6 2 4 3 5 6 3 4 4 3 1 0 1 2 2 4 2 3 1 2 1 3 1 6 10 7 7 10 10 17 11 6 6 7 8 7 7 7 7 7 6
20 6 3 3 7 7 11 5 4 7 3 4 3 2 3 4 1 2 3 1 2 2 4 2 1 5 10 9 8 10 11 15 9 4 5 5 6 8 8 11 9 10 10 7
3 4 3 1 20 4 2 4 5 3 3 4 3 4 4 1 4 4 0 3 2 2 2 4 3 5 5 5 7 7 10 11 11 11 7 7 7 6 7 6 7 6 7 7
4 3 5 2 3 2 4 1 3 6 6 2 3 3 4 2 4 4 2 3 3 3 3 3 4 6 2 6 9 8 11 7 8 7 7 5 7 7 6 6 7 4 4 4
2 2 3 3 2 5 5 4 2 1 2 3 2 2 3 3 5 4 2 2 4 2 1 4 6 2 3 7 9 9 11 8 7 6 6 7 6 8 4 9 6 8 7 4
4 4 6 3 4 2 0 0 2 3 2 4 4 2 3 1 3 3 4 3 1 2 4 7 3 3 3 4 5 5 6 8 9 8 8 8 9 9 8 10 6 8 7 3
4 4 2 3 2 1 1 2 3 3 1 3 3 4 3 2 4 1 3 2 3 5 6 4 2 4 3 2 4 5 5 4 7 7 9 8 9 10 9 7 6 7 6 6
3 4 3 3 4 5 4 2 2 2 1 2 3 2 4 2 3 2 5 6 6 6 4 2 3 5 3 3 3 4 4 5 6 6 7 7 7 7 8 7 7 6 6 6
3 2 1 3 3 5 4 1 3 2 3 3 3 4 7 2 2 3 5 6 5 4 2 1 3 5 5 4 4 4 5 5 6 7 6 6 5 7 7 7 4 6 5 6
Wind_Direction
220 215 214 211 205 191 121 184 231 292 161 207 221 226 219 240 247 66 252 303 277 227 199 225 267 219 216 357 98 193 179 202 213 233 240 182 121 234 163 181 177 215 185 269
220 216 211 207 200 180 131 198 267 272 234 216 223 251 246 234 237 199 224 250 246 324 230 237 257 301 10 179 125 309 151 232 248 306 348 358 221 229 239 187 94 189 173 259
223 215 210 205 197 181 106 123 252 224 238 231 225 232 229 237 256 233 260 261 260 290 249 273 272 226 29 2 283 172 79 203 196 227 135 119 280 231 199 194 203 160 214 264
222 216 212 208 200 188 111 130 236 251 200 237 239 247 288 236 244 221 198 242 227 218 257 210 230 244 304 71 300 179 156 244 179 277 267 271 265 299 302 206 206 193 216 218
220 215 213 208 198 186 118 153 186 229 256 303 251 218 226 244 255 220 216 229 235 222 228 243 252 196 205 215 200 198 37 221 149 252 267 238 235 276 283 249 255 240 153 237
217 215 209 205 195 174 161 216 170 116 255 272 260 253 225 230 249 246 228 231 234 236 235 216 260 242 212 174 170 281 157 127 122 246 187 116 248 230 231 216 209 201 235 227
217 213 209 205 199 192 134 180 125 127 258 215 230 271 295 296 298 267 254 220 230 241 216 149 137 73 273 189 191 136 193 145 145 239 127 227 252 203 213 207 195 212 213 184
215 212 209 207 203 196 153 164 154 139 244 224 244 260 270 288 282 263 238 243 238 203 139 228 228 231 269 229 238 187 189 151 165 209 199 305 279 195 171 172 256 210 227 213
213 211 208 206 203 198 182 169 130 148 127 235 249 253 236 261 265 309 254 241 229 143 222 204 226 207 190 207 224 200 175 242 194 152 205 212 271 194 181 108 263 192 207 195
213 211 209 205 202 197 181 170 171 144 225 239 247 206 228 275 339 316 245 190 159 180 208 214 204 226 195 208 200 174 198 189 210 191 218 276 225 208 151 142 241 237 178 157
212 210 210 205 204 191 180 184 178 193 204 246 239 238 235 241 227 236 294 167 213 139 183 192 225 183 207 229 204 176 183 182 191 180 198 248 192 126 177 215 208 186 160 164
208 211 206 205 183 191 179 184 179 189 201 229 226 240 249 219 222 233 239 317 302 165 162 196 117 165 149 61 301 305 200 186 172 188 203 242 195 210 227 191 159 163 150 136
202 207 189 173 183 189 176 153 141 173 232 268 257 250 238 221 199 176 238 276 231 212 173 158 131 180 121 167 230 234 276 194 228 105 220 225 240 211 302 206 159 151 136 140
189 174 173 173 183 185 175 166 160 163 163 227 259 222 228 181 191 224 228 240 270 185 123 129 150 183 181 194 207 202 197 145 187 250 314 349 290 225 194 120 126 117 133 155
162 163 164 177 178 179 164 121 189 179 188 257 261 257 176 176 268 260 238 210 211 196 117 137 184 142 119 296 342 242 186 184 174 218 201 172 221 208 185 157 171 168 156 147
151 161 165 166 166 160 129 171 244 199 166 307 277 281 158 172 183 215 66 128 83 229 104 185 193 277 118 158 222 244 216 222 186 190 192 194 208 221 182 204 208 192 181 173
144 149 156 161 164 152 170 186 180 198 134 241 245 221 146 168 171 117 127 110 127 106 133 81 172 142 105 159 225 251 231 211 196 210 145 224 183 207 201 195 205 174 190 184
141 144 151 158 153 140 221 255 357 129 147 260 261 286 109 355 72 80 337 60 34 22 87 354 87 14 64 266 242 230 236 243 239 224 224 214 227 221 228 165 128 142 164 169
127 103 73 78 86 190 182 184 182 174 201 226 249 244 207 111 69 86 26 53 54 338 88 307 93 244 222 228 252 247 251 222 243 249 224 201 212 239 209 172 175 166 177 165
120 88 106 210 204 184 136 145 155 204 183 249 242 118 142 102 31 31 106 62 137 151 234 90 135 259 264 277 260 251 237 229 230 186 251 233 227 213 209 204 190 188 180 160
199 193 185 208 126 129 58 176 181 116 209 218 217 151 136 271 119 154 130 149 143 137 225 151 247 264 233 252 276 322 269 204 206 218 217 204 199 197 195 192 197 171 160 176
206 175 93 52 72 144 169 146 158 210 197 163 157 165 142 125 119 100 150 126 158 192 158 176 247 247 294 330 332 314 317 197 190 203 215 213 213 202 153 125 117 121 118 117
168 140 104 130 244 81 157 182 232 165 103 191 132 58 114 37 53 76 121 138 206 176 128 248 234 245 4 2 338 354 8 64 86 77 74 80 66 51 106 113 93 104 94 69
65 37 14 79 352 32 287 0 169 255 160 130 113 83 113 151 82 135 119 247 173 170 222 236 247 217 71 0 7 28 22 42 68 65 64 68 85 80 70 80 77 103 100 83
55 59 24 35 35 34 355 342 327 312 106 113 73 45 79 17 99 154 120 136 231 227 231 230 210 111 113 104 70 72 74 17 68 79 83 71 76 85 82 77 84 91 96 89
63 67 71 339 44 320 353 11 306 293 118 52 57 128 69 281 132 109 214 158 222 248 227 203 131 112 146 129 116 111 89 74 83 84 88 88 89 99 97 93 92 96 98 99
17 323 163 166 179 188 230 219 254 257 78 153 126 123 202 93 142 212 177 207 219 215 208 155 119 148 135 135 118 108 113 106 104 106 93 92 89 93 98 102 86 91 87 93